Weather in Tombouctou

Mali     16°46′37″N   3°00′23″W
В апреле 2022 года жителям России запретили посещать сайт meteo.paraplan.net по решению Генеральной прокуратуры. Аудитория сайта уменьшилась в 10 раз. Владельцы сайта не видят смысла в поддержке погодного сервера в таких условиях. Сайт будет закрыт в октябре.
temp.,
°C
wind,
m/s
gust,
m/s
humid.,
%
clouds,
%
prec.,
mm/h
press.,
hPa
HPBL,
m
6 october, thu
thu600:00+35se33220 0.0 100926
03:00+32wsw45294 0.0 100858
06:00+31sw46322 0.0 100986
09:00+34w33274 0.0 1011433
12:00+38nnw34185 0.0 10092466
15:00+40nne471211 0.0 10064395
18:00+38ene45135 0.0 100797
21:00+36ne45145 0.0 100863
7 october, fri
fri700:00+35ene34153 0.0 100823
03:00+32sse45275 0.0 100867
06:00+29sw6114237 0.0 1010262
09:00+32sw78343 0.0 1012653
12:00+37wsw44230 0.0 10101556
15:00+39sse25155 0.0 10074260
18:00+38se231610 0.0 100777
21:00+36se582297 0.0 1010298
8 october, sat
sat800:00+32sw673691 0.0 1010312
03:00+31wsw573719 0.0 1009252
06:00+30sw33389 0.0 101045
09:00+34sw23275 0.0 1011570
12:00+38wsw23213 0.0 10102098
15:00+39nne341717 0.0 10073736
18:00+38ne4517100 0.0 10081334
21:00+35s992599 0.1 1010823
9 october, sun
sun900:00+33sw46335 0.1 1010222
03:00+31w47385 0.0 1010182
06:00+30wnw46415 0.0 1011146
09:00+33wnw56333 0.0 1013756
12:00+37nw54245 0.0 10111683
15:00+39nne36170 0.0 10093332
18:00+38ne34151 0.0 100988
21:00+36ne44140 0.0 101147
10 october, mon
mon1000:00+34nne441418 0.0 101030
03:00+33nne34157 0.0 100920
06:00+31ene44174 0.0 101035
09:00+36e57120 0.0 1012459
12:00+40e7890 0.0 10103340
15:00+41ene8895 0.0 10074145
18:00+38ene46110 0.0 100890
21:00+35ene46120 0.0 100984